Stations météo

réclame
Mon MeteoGroup
St. James's Park, Grande-Bretagne (3770): Température de l'air & dewpoint: 16.09.2018 07:00:00 - 22.09.2018 07:00:00 (BST)St. James's Park, Grande-Bretagne (3770): Température de l'air -20cm & Température de l'air -100cm: 16.09.2018 07:00:00 - 22.09.2018 07:00:00 (BST)St. James's Park, Grande-Bretagne (3770): Quantités de précipitations: 16.09.2018 07:00:00 - 22.09.2018 07:00:00 (BST)
Date & Time tt [°C] td [°C] tt -20cm [°C] tt -100cm [°C] rr [mm]
22.09.2018 07:00:00 - - - - -
22.09.2018 06:00:00 - - - - -
22.09.2018 05:00:00 11,0 8,5 - - 0,0
22.09.2018 04:00:00 11,3 8,0 - - 0,0
22.09.2018 03:00:00 11,3 7,9 - - 0,0
22.09.2018 02:00:00 11,4 7,6 - - 0,0
22.09.2018 01:00:00 11,7 7,4 - - 0,0
22.09.2018 00:00:00 12,1 7,8 - - 0,0
21.09.2018 23:00:00 12,4 7,8 - - 0,0
21.09.2018 22:00:00 12,8 7,3 - - 0,0
21.09.2018 21:00:00 13,5 6,7 - - 0,0
21.09.2018 20:00:00 14,1 6,1 - - 0,0
21.09.2018 19:00:00 15,3 6,0 - - 0,0
21.09.2018 18:00:00 15,7 7,0 - - 0,0
21.09.2018 17:00:00 16,5 7,1 - - 0,0
21.09.2018 16:00:00 15,9 7,6 - - 0,0
21.09.2018 15:00:00 15,5 7,7 - - 0,0
21.09.2018 14:00:00 14,2 8,4 - - 0,8
21.09.2018 13:00:00 15,3 4,9 - - 0,0
21.09.2018 12:00:00 15,2 5,8 - - 0,0
21.09.2018 11:00:00 13,5 5,3 - - 0,0
21.09.2018 10:00:00 12,8 5,0 18,2 18,0 0,0
21.09.2018 09:00:00 11,8 5,6 - - 0,0
21.09.2018 08:00:00 11,2 6,1 - - 0,0
21.09.2018 07:00:00 11,5 6,7 - - 0,0
21.09.2018 06:00:00 12,8 8,4 - - 0,0
21.09.2018 05:00:00 13,5 8,9 - - 0,0
21.09.2018 04:00:00 14,1 10,0 - - 0,0
21.09.2018 03:00:00 15,2 13,0 - - 3,6
21.09.2018 02:00:00 18,3 15,8 - - 0,2
21.09.2018 01:00:00 18,9 15,3 - - 0,0
21.09.2018 00:00:00 18,8 15,3 - - 0,0
20.09.2018 23:00:00 19,4 14,7 - - 0,2
20.09.2018 22:00:00 19,3 14,7 - - 0,0
20.09.2018 21:00:00 19,9 14,4 - - 0,0
20.09.2018 20:00:00 19,7 14,1 - - 0,0
20.09.2018 19:00:00 20,2 13,9 - - 0,0
20.09.2018 18:00:00 20,6 14,1 - - 0,0
20.09.2018 17:00:00 20,6 14,2 - - 0,0
20.09.2018 16:00:00 20,6 13,9 - - 0,0
20.09.2018 15:00:00 20,9 13,6 - - 0,0
20.09.2018 14:00:00 20,0 13,9 - - 0,0
20.09.2018 13:00:00 19,9 14,1 - - 0,0
20.09.2018 12:00:00 19,0 15,1 - - 0,2
20.09.2018 11:00:00 18,6 15,0 - - 0,0
20.09.2018 10:00:00 18,9 14,6 18,4 18,0 0,0
20.09.2018 09:00:00 18,7 14,2 - - 0,0
20.09.2018 08:00:00 18,1 14,7 - - 0,0
20.09.2018 07:00:00 17,4 15,0 - - 0,0
20.09.2018 06:00:00 18,2 14,4 - - 0,0
20.09.2018 05:00:00 18,3 14,5 - - 0,0
20.09.2018 04:00:00 18,2 14,7 - - 0,0
20.09.2018 03:00:00 18,3 14,6 - - 0,0
20.09.2018 02:00:00 18,4 14,9 - - 0,0
20.09.2018 01:00:00 18,4 15,0 - - 0,0
20.09.2018 00:00:00 17,8 14,3 - - 0,0
19.09.2018 23:00:00 18,6 14,7 - - 0,0
19.09.2018 22:00:00 18,7 14,5 - - 0,0
19.09.2018 21:00:00 19,1 14,4 - - 0,0
19.09.2018 20:00:00 19,5 14,1 - - 0,0
19.09.2018 19:00:00 20,1 14,1 - - 0,0
19.09.2018 18:00:00 20,4 13,4 - - 0,0
19.09.2018 17:00:00 21,0 12,9 - - 0,0
19.09.2018 16:00:00 22,1 12,8 - - 0,0
19.09.2018 15:00:00 22,0 13,5 - - 0,0
19.09.2018 14:00:00 21,5 15,4 - - 0,0
19.09.2018 13:00:00 21,9 15,3 - - 0,0
19.09.2018 12:00:00 20,4 15,2 - - 0,0
19.09.2018 11:00:00 20,2 15,5 - - 0,0
19.09.2018 10:00:00 19,7 15,1 18,2 18,0 0,0
19.09.2018 09:00:00 18,9 15,5 - - 0,0
19.09.2018 08:00:00 18,4 15,0 - - 0,0
19.09.2018 07:00:00 18,0 15,2 - - 0,0
19.09.2018 06:00:00 18,3 14,7 - - 0,0
19.09.2018 05:00:00 18,4 14,4 - - 0,0
19.09.2018 04:00:00 17,8 14,2 - - 0,0
19.09.2018 03:00:00 17,8 13,9 - - 0,0
19.09.2018 02:00:00 18,2 13,9 - - 0,0
19.09.2018 01:00:00 18,3 13,5 - - 0,0
19.09.2018 00:00:00 18,5 14,0 - - 0,0
18.09.2018 23:00:00 18,2 14,3 - - 0,0
18.09.2018 22:00:00 18,3 14,2 - - 0,0
18.09.2018 21:00:00 18,7 13,9 - - 0,0
18.09.2018 20:00:00 19,0 14,2 - - 0,0
18.09.2018 19:00:00 19,4 14,0 - - 0,0
18.09.2018 18:00:00 20,0 14,0 - - 0,0
18.09.2018 17:00:00 20,6 14,2 - - 0,0
18.09.2018 16:00:00 21,8 13,5 - - 0,0
18.09.2018 15:00:00 22,1 12,7 - - 0,0
18.09.2018 14:00:00 21,8 12,8 - - 0,0
18.09.2018 13:00:00 21,1 12,4 - - 0,0
18.09.2018 12:00:00 20,1 12,6 - - 0,0
18.09.2018 11:00:00 19,0 13,3 - - 0,0
18.09.2018 10:00:00 18,6 14,6 18,0 17,9 0,0
18.09.2018 09:00:00 18,3 14,5 - - 0,0
18.09.2018 08:00:00 18,5 14,6 - - 0,0
18.09.2018 07:00:00 19,1 14,2 - - 0,0
18.09.2018 06:00:00 18,9 15,7 - - 0,0
18.09.2018 05:00:00 19,1 15,2 - - 0,0
18.09.2018 04:00:00 18,7 14,5 - - 0,0
18.09.2018 03:00:00 18,7 13,1 - - 0,0
18.09.2018 02:00:00 19,1 12,2 - - 0,0
18.09.2018 01:00:00 17,0 10,1 - - 0,0
18.09.2018 00:00:00 17,9 9,4 - - 0,0
17.09.2018 23:00:00 18,2 9,3 - - 0,0
17.09.2018 22:00:00 19,0 9,0 - - 0,0
17.09.2018 21:00:00 19,2 9,4 - - 0,0
17.09.2018 20:00:00 20,7 9,6 - - 0,0
17.09.2018 19:00:00 21,7 9,8 - - 0,0
17.09.2018 18:00:00 23,0 9,2 - - 0,0
17.09.2018 17:00:00 24,3 11,1 - - 0,0
17.09.2018 16:00:00 25,0 8,2 - - 0,0
17.09.2018 15:00:00 25,4 9,7 - - 0,0
17.09.2018 14:00:00 25,0 10,7 - - 0,0
17.09.2018 13:00:00 24,0 11,8 - - 0,0
17.09.2018 12:00:00 23,3 13,6 - - 0,0
17.09.2018 11:00:00 21,6 14,0 - - 0,0
17.09.2018 10:00:00 19,8 14,9 17,7 17,9 0,0
17.09.2018 09:00:00 18,8 15,2 - - 0,0
17.09.2018 08:00:00 18,4 15,4 - - 0,0
17.09.2018 07:00:00 18,1 15,4 - - 0,0
17.09.2018 06:00:00 18,1 15,5 - - 0,0
17.09.2018 05:00:00 18,0 15,5 - - 0,0
17.09.2018 04:00:00 18,0 15,5 - - 0,0
17.09.2018 03:00:00 17,6 15,3 - - 0,0
17.09.2018 02:00:00 17,6 15,2 - - 0,0
17.09.2018 01:00:00 17,7 15,0 - - 0,0
17.09.2018 00:00:00 17,6 14,7 - - 0,0
16.09.2018 23:00:00 17,8 14,4 - - 0,0
16.09.2018 22:00:00 18,0 14,2 - - 0,0
16.09.2018 21:00:00 18,3 13,7 - - 0,0
16.09.2018 20:00:00 19,2 13,6 - - 0,0
16.09.2018 19:00:00 20,5 12,5 - - 0,0
16.09.2018 18:00:00 21,6 11,1 - - 0,0
16.09.2018 17:00:00 23,2 10,9 - - 0,0
16.09.2018 16:00:00 23,3 9,9 - - 0,0
16.09.2018 15:00:00 23,3 10,7 - - 0,0
16.09.2018 14:00:00 21,6 10,3 - - 0,0
16.09.2018 13:00:00 21,3 11,7 - - 0,0
16.09.2018 12:00:00 20,9 13,0 - - 0,0
16.09.2018 11:00:00 18,7 13,3 - - 0,0
16.09.2018 10:00:00 17,6 13,1 17,2 18,0 0,0
16.09.2018 09:00:00 16,4 13,1 - - 0,0
16.09.2018 08:00:00 15,0 12,3 - - 0,0
16.09.2018 07:00:00 14,3 11,8 - - 0,0

tt = Température de l'air
td = dewpoint
tt -20cm = Température de l'air -20cm
tt -100cm = Température de l'air -100cm
rr = Quantités de précipitations

stations d'obs. à proximité